Stations météo

réclame
Mon MeteoGroup
Luxeuil, France (7292): Température de l'air & dewpoint: 22.02.2020 18:00:00 - 28.02.2020 18:00:00 (CET)Luxeuil, France (7292): Température de l'air 5cm: 22.02.2020 18:00:00 - 28.02.2020 18:00:00 (CET)Luxeuil, France (7292): Température de l'air -20cm: 22.02.2020 18:00:00 - 28.02.2020 18:00:00 (CET)Luxeuil, France (7292): Vitesse du vent & gusts: 22.02.2020 18:00:00 - 28.02.2020 18:00:00 (CET)Luxeuil, France (7292): Direction du vent: 22.02.2020 18:00:00 - 28.02.2020 18:00:00 (CET)Luxeuil, France (7292): reduced air pressure: 22.02.2020 18:00:00 - 28.02.2020 18:00:00 (CET)Luxeuil, France (7292): visibility: 22.02.2020 18:00:00 - 28.02.2020 18:00:00 (CET)Luxeuil, France (7292): Ensoleillement: 22.02.2020 18:00:00 - 28.02.2020 18:00:00 (CET)Luxeuil, France (7292): Quantités de précipitations: 22.02.2020 18:00:00 - 28.02.2020 18:00:00 (CET)
Date & Time tt [°C] td [°C] tt 5cm [°C] tt -20cm [°C] ff [km/h] ff [knt] fx [km/h] fx [knt] dd ppp [hPa] vv [km] sd [min] rr [mm]
28.02.2020 18:00:00 - - - - - - - - - - - - -
28.02.2020 17:00:00 9,0 -4,2 9,0 5,8 12 7 26 14 S 1017,1 60 0 0,0
28.02.2020 16:00:00 9,6 -6,3 10,7 5,5 17 9 32 17 SSW 1017,5 53 40 0,0
28.02.2020 15:00:00 9,5 -4,1 12,5 5,2 19 10 28 15 SSW 1018,3 42 55 0,0
28.02.2020 14:00:00 9,3 -4,0 12,3 4,9 13 7 29 16 S 1019,4 57 60 0,0
28.02.2020 13:00:00 8,2 -1,6 11,0 4,8 13 7 25 14 S 1020,9 20 58 0,0
28.02.2020 12:00:00 7,5 -0,7 9,5 4,8 11 6 26 14 SSW 1021,9 60 60 0,0
28.02.2020 11:00:00 6,2 -0,1 6,5 4,9 10 5 21 11 SW 1022,7 54 56 0,0
28.02.2020 10:00:00 3,9 0,6 3,3 4,9 9 5 18 10 ESE 1023,3 35 60 0,0
28.02.2020 09:00:00 1,0 -0,3 -1,2 5,0 8 4 14 8 E 1024,1 19 11 0,0
28.02.2020 08:00:00 -1,1 -1,8 -2,4 5,1 7 4 9 5 ESE 1024,1 14 7 0,0
28.02.2020 07:00:00 -1,1 -1,8 -2,6 5,2 6 3 11 6 ENE 1023,6 20 0 0,0
28.02.2020 06:00:00 -0,2 -1,5 -1,6 5,4 8 4 14 8 E 1022,9 37 0 0,0
28.02.2020 05:00:00 -0,9 -2,0 -2,4 5,4 7 4 10 6 E 1022,2 29 0 0,0
28.02.2020 04:00:00 0,1 -1,5 -2,0 5,5 7 4 13 7 WSW 1021,5 43 0 0,0
28.02.2020 03:00:00 0,7 -1,2 0,3 5,5 12 7 23 12 W 1020,7 56 0 0,0
28.02.2020 02:00:00 2,2 -0,6 1,4 5,6 15 8 28 15 W 1019,6 60 0 0,0
28.02.2020 01:00:00 3,1 -0,4 2,5 5,6 13 7 27 15 WNW 1018,4 60 0 0,0
28.02.2020 00:00:00 3,6 -0,6 3,1 5,6 18 10 33 18 W 1017,2 60 0 0,0
27.02.2020 23:00:00 3,4 -0,1 2,9 5,7 18 10 41 22 W 1015,8 60 0 0,0
27.02.2020 22:00:00 3,8 0,1 3,5 5,7 21 12 42 23 W 1014,5 60 0 0,0
27.02.2020 21:00:00 3,9 0,2 3,3 5,6 22 12 52 28 W 1012,2 60 0 0,0
27.02.2020 20:00:00 4,7 0,1 4,4 5,6 32 17 63 34 WNW 1009,8 60 0 0,0
27.02.2020 19:00:00 5,2 0,8 4,9 5,5 39 21 71 38 WNW 1006,5 60 0 0,0
27.02.2020 18:00:00 6,2 0,7 5,9 5,4 51 28 91 49 WNW 1002,4 60 0 0,0
27.02.2020 17:00:00 8,5 5,8 7,0 5,2 53 28 98 53 WSW 996,4 35 6 0,0
27.02.2020 16:00:00 7,1 5,1 6,5 5,2 48 26 88 48 SW 995,1 48 21 0,0
27.02.2020 15:00:00 6,9 5,0 4,8 5,1 50 27 83 45 SW 995,2 16 7 0,0
27.02.2020 14:00:00 5,2 3,8 1,9 5,2 23 12 50 27 SW 996,6 6 0 0,2
27.02.2020 13:00:00 1,9 1,3 1,4 5,3 9 5 27 15 S 999,3 2,8 0 2,0
27.02.2020 12:00:00 2,6 1,0 1,8 5,3 15 8 45 24 S 1001,2 7 0 1,0
27.02.2020 11:00:00 3,0 0,1 2,0 5,3 29 16 51 27 S 1003,7 17 0 0,0
27.02.2020 10:00:00 3,4 0,3 2,5 5,4 13 7 20 11 SE 1005,9 54 0 0,0
27.02.2020 09:00:00 2,4 0,3 1,3 5,5 11 6 16 9 SE 1007,9 52 0 0,0
27.02.2020 08:00:00 1,5 0,0 0,9 5,5 11 6 25 14 SE 1009,8 49 6 0,0
27.02.2020 07:00:00 1,9 -0,2 0,9 5,6 16 9 27 14 SSW 1011,0 59 0 0,0
27.02.2020 06:00:00 1,6 0,1 0,3 5,6 6 4 14 8 S 1012,3 57 0 0,0
27.02.2020 05:00:00 1,1 -0,1 -0,1 5,7 2 1 22 12 SSE 1013,0 51 0 0,0
27.02.2020 04:00:00 1,7 0,2 1,1 5,8 14 8 36 19 SW 1013,6 55 0 0,0
27.02.2020 03:00:00 2,1 0,3 1,2 5,8 22 12 37 20 WSW 1014,1 59 0 0,0
27.02.2020 02:00:00 2,2 0,6 1,5 5,9 19 10 33 18 WSW 1014,5 56 0 0,0
27.02.2020 01:00:00 2,3 0,5 0,9 6,0 19 11 34 18 WSW 1014,4 59 0 0,0
27.02.2020 00:00:00 1,6 0,4 0,3 6,0 16 9 26 14 WSW 1014,7 60 0 0,0
26.02.2020 23:00:00 1,5 0,5 0,7 6,1 18 10 29 16 WSW 1014,8 60 0 0,0
26.02.2020 22:00:00 1,3 0,6 -0,2 6,2 10 5 16 9 WSW 1014,4 60 0 0,0
26.02.2020 21:00:00 1,0 0,4 0,3 6,2 0 0 14 8 N 1013,7 42 0 0,0
26.02.2020 20:00:00 1,6 0,9 0,8 6,3 7 4 13 7 W 1013,4 20 0 0,0
26.02.2020 19:00:00 1,4 0,4 0,4 6,3 7 4 27 15 WSW 1012,6 8 0 0,6
26.02.2020 18:00:00 2,4 0,0 1,7 6,2 16 9 39 21 WNW 1011,7 37 0 0,0
26.02.2020 17:00:00 4,6 -0,8 3,6 6,2 24 13 37 20 W 1010,3 60 12 0,0
26.02.2020 16:00:00 4,5 0,1 0,7 6,2 19 11 39 21 WNW 1009,3 58 23 0,4
26.02.2020 15:00:00 3,9 -0,3 3,1 6,2 10 5 27 15 W 1009,0 16 15 0,0
26.02.2020 14:00:00 3,1 1,1 1,5 6,4 21 11 61 33 NW 1008,7 57 5 0,8
26.02.2020 13:00:00 1,7 1,3 0,1 6,4 15 8 42 23 WNW 1007,5 2,4 6 0,4
26.02.2020 12:00:00 2,6 0,8 1,4 6,5 14 8 31 17 SW 1007,6 48 0 0,2
26.02.2020 11:00:00 2,7 0,1 1,8 6,6 11 6 34 18 WSW 1007,2 55 0 0,0
26.02.2020 10:00:00 2,2 -0,2 1,4 6,7 21 11 40 22 W 1006,6 60 0 0,0
26.02.2020 09:00:00 2,0 0,2 1,2 6,8 27 15 45 24 W 1005,4 60 0 0,0
26.02.2020 08:00:00 1,7 0,8 1,0 6,9 20 11 46 25 W 1004,3 8 0 0,4
26.02.2020 07:00:00 2,9 0,6 2,3 7,1 26 14 40 21 SW 1003,7 18 0 0,0
26.02.2020 06:00:00 3,1 0,2 1,8 7,2 25 13 49 26 SW 1004,7 60 0 0,0
26.02.2020 05:00:00 2,9 0,3 2,1 7,2 19 10 37 20 WSW 1005,2 60 0 0,0
26.02.2020 04:00:00 3,4 0,3 2,7 7,4 26 14 41 22 WSW 1005,4 60 0 0,0
26.02.2020 03:00:00 3,3 1,0 1,8 7,5 22 12 48 26 WSW 1005,7 60 0 0,0
26.02.2020 02:00:00 2,0 1,1 1,6 7,6 10 5 23 12 WNW 1005,7 37 0 0,0
26.02.2020 01:00:00 1,9 0,9 1,4 7,7 28 15 98 53 WNW 1005,6 6 0 1,2
26.02.2020 00:00:00 6,1 1,8 5,2 7,8 36 20 60 32 WSW 1003,4 60 0 0,0
25.02.2020 23:00:00 6,9 3,7 5,9 7,9 25 14 48 26 SW 1003,9 60 0 0,0
25.02.2020 22:00:00 6,4 3,9 2,7 7,9 24 13 43 23 SW 1004,3 60 0 0,0
25.02.2020 21:00:00 4,4 3,1 1,9 7,9 5 3 23 12 WSW 1005,2 47 0 0,0
25.02.2020 20:00:00 4,8 3,0 2,0 8,0 6 3 16 9 S 1005,5 60 0 0,0
25.02.2020 19:00:00 6,6 3,0 4,7 8,0 13 7 30 16 WSW 1006,2 60 0 0,0
25.02.2020 18:00:00 8,3 5,0 7,6 7,9 15 8 43 23 WSW 1006,1 60 14 0,0
25.02.2020 17:00:00 8,5 5,6 8,1 7,9 16 9 47 26 WSW 1006,4 60 5 0,0
25.02.2020 16:00:00 8,7 6,7 7,7 7,8 30 16 53 28 WSW 1006,5 17 0 1,0
25.02.2020 15:00:00 9,0 7,0 8,3 7,8 27 15 52 28 SW 1006,7 20 5 0,0
25.02.2020 14:00:00 8,1 6,4 7,2 7,8 29 16 54 29 SSW 1007,6 20 0 0,0
25.02.2020 13:00:00 7,4 6,3 6,7 7,8 31 17 53 29 SW 1008,6 5 0 0,0
25.02.2020 12:00:00 7,1 5,6 6,6 7,9 26 14 56 30 SW 1009,4 16 0 0,0
25.02.2020 11:00:00 7,0 5,6 6,1 7,9 32 17 54 29 SW 1009,9 10 0 0,0
25.02.2020 10:00:00 6,6 5,4 5,9 8,0 28 15 50 27 SW 1010,6 9 0 0,4
25.02.2020 09:00:00 6,4 5,2 5,6 8,1 20 11 40 22 WSW 1011,1 8 0 1,2
25.02.2020 08:00:00 6,7 4,5 5,8 8,2 18 10 40 22 SW 1011,3 10 0 0,0
25.02.2020 07:00:00 6,5 4,8 5,7 8,3 27 15 44 24 SW 1011,8 19 0 0,0
25.02.2020 06:00:00 7,1 4,2 5,7 8,4 24 13 41 22 SW 1012,1 27 0 0,0
25.02.2020 05:00:00 6,0 4,5 2,6 8,6 21 12 35 19 WSW 1012,7 20 0 0,0
25.02.2020 04:00:00 3,7 3,4 1,6 8,7 6 4 11 6 ESE 1013,2 8 0 0,0
25.02.2020 03:00:00 4,8 4,5 2,2 8,8 5 3 14 7 SSW 1013,7 11 0 0,0
25.02.2020 02:00:00 4,5 2,7 2,6 9,0 6 4 22 12 SE 1014,3 16 0 0,0
25.02.2020 01:00:00 5,4 4,7 3,6 9,0 7 4 31 17 WSW 1014,6 19 0 0,0
25.02.2020 00:00:00 8,6 6,4 6,9 9,1 13 7 23 12 WNW 1014,7 19 0 0,0
24.02.2020 23:00:00 10,1 7,2 6,8 9,1 11 6 18 10 W 1014,8 35 0 0,0
24.02.2020 22:00:00 11,5 8,0 7,6 9,1 8 4 22 12 W 1015,1 52 0 0,0
24.02.2020 21:00:00 11,3 7,4 8,6 9,1 12 7 24 13 WSW 1015,6 60 0 0,0
24.02.2020 20:00:00 12,2 8,1 8,8 9,1 18 10 34 18 SW 1015,8 60 0 0,0
24.02.2020 19:00:00 12,1 7,6 8,0 8,9 12 7 27 15 SW 1016,1 60 0 0,0
24.02.2020 18:00:00 13,6 7,8 11,9 8,8 17 9 33 18 WSW 1016,2 60 46 0,0
24.02.2020 17:00:00 15,3 8,5 15,8 8,6 21 11 36 19 WSW 1016,7 42 60 0,0
24.02.2020 16:00:00 14,9 8,4 15,9 8,5 17 9 37 20 SW 1018,1 34 60 0,0
24.02.2020 15:00:00 13,1 8,6 11,6 8,5 18 10 31 17 SW 1019,6 43 13 0,0
24.02.2020 14:00:00 11,0 8,4 10,7 8,5 16 9 31 17 SSW 1021,5 49 0 0,0
24.02.2020 13:00:00 10,5 8,6 10,0 8,4 17 9 38 20 SW 1022,7 36 0 0,0
24.02.2020 12:00:00 10,0 8,3 9,8 8,5 23 12 35 19 SW 1024,0 47 0 0,0
24.02.2020 11:00:00 9,8 8,4 9,3 8,5 14 8 34 18 SW 1024,6 33 0 0,0
24.02.2020 10:00:00 9,5 8,4 9,3 8,5 22 12 34 18 SW 1025,2 16 0 0,0
24.02.2020 09:00:00 9,5 8,4 8,7 8,4 14 8 24 13 SW 1025,5 19 0 0,0
24.02.2020 08:00:00 9,1 8,3 8,7 8,5 10 5 20 11 SW 1026,0 5 0 0,2
24.02.2020 07:00:00 9,6 8,2 9,2 8,4 14 8 24 13 WSW 1026,3 18 0 0,0
24.02.2020 06:00:00 10,0 7,9 9,8 8,4 16 9 26 14 WSW 1026,6 37 0 0,0
24.02.2020 05:00:00 10,5 7,9 10,1 8,4 14 8 21 11 SW 1026,8 60 0 0,0
24.02.2020 04:00:00 10,7 7,9 10,2 8,4 11 6 23 12 WSW 1026,9 60 0 0,0
24.02.2020 03:00:00 10,7 8,1 10,3 8,4 13 7 27 15 SW 1027,5 60 0 0,0
24.02.2020 02:00:00 11,1 8,1 10,6 8,3 16 8 34 18 WSW 1028,1 60 0 0,0
24.02.2020 01:00:00 11,4 8,3 11,0 8,2 21 12 36 19 W 1028,0 60 0 0,0
24.02.2020 00:00:00 11,9 8,2 11,5 8,2 21 11 35 19 W 1027,8 60 0 0,0
23.02.2020 23:00:00 12,6 8,3 12,0 8,1 19 10 39 21 W 1027,7 60 0 0,0
23.02.2020 22:00:00 13,2 8,5 12,4 8,0 22 12 42 23 W 1027,3 60 0 0,0
23.02.2020 21:00:00 13,6 8,2 12,4 8,0 18 10 30 16 W 1026,6 60 0 0,0
23.02.2020 20:00:00 13,5 7,5 12,6 8,0 18 10 26 14 W 1026,7 60 0 0,0
23.02.2020 19:00:00 13,9 6,5 12,8 7,9 13 7 36 19 W 1026,3 60 0 0,0
23.02.2020 18:00:00 14,3 4,8 13,2 7,7 21 11 37 20 WSW 1025,7 60 0 0,0
23.02.2020 17:00:00 14,0 3,7 13,2 7,7 20 11 39 21 WSW 1025,8 60 0 0,0
23.02.2020 16:00:00 13,6 3,6 12,7 7,6 16 9 34 19 WSW 1025,7 54 0 0,0
23.02.2020 15:00:00 13,3 3,1 12,6 7,4 16 8 53 29 WSW 1026,2 59 0 0,0
23.02.2020 14:00:00 13,0 3,9 12,8 7,3 25 13 52 28 WSW 1026,5 54 10 0,0
23.02.2020 13:00:00 14,4 3,8 12,8 7,3 23 12 49 26 WSW 1027,1 48 13 0,0
23.02.2020 12:00:00 12,3 2,2 11,2 7,3 31 17 51 28 SW 1028,2 43 0 0,0
23.02.2020 11:00:00 11,6 3,4 10,9 7,2 24 13 48 26 WSW 1028,4 57 0 0,0
23.02.2020 10:00:00 10,7 3,2 9,7 7,2 24 13 45 25 WSW 1028,9 49 0 0,0
23.02.2020 09:00:00 9,7 4,1 8,7 7,2 27 15 39 21 SW 1029,3 59 0 0,0
23.02.2020 08:00:00 9,2 4,0 7,9 7,2 17 9 29 15 SW 1029,2 59 0 0,0
23.02.2020 07:00:00 9,1 3,7 7,2 7,2 4 2 11 6 S 1029,0 59 0 0,0
23.02.2020 06:00:00 7,7 5,5 6,7 7,2 4 2 14 7 E 1029,7 50 0 0,0
23.02.2020 05:00:00 7,3 5,8 6,5 7,3 9 5 23 13 E 1030,3 36 0 0,0
23.02.2020 04:00:00 8,0 4,8 6,5 7,3 8 5 33 18 WSW 1030,5 43 0 0,0
23.02.2020 03:00:00 9,7 2,5 8,8 7,3 15 8 21 12 WSW 1030,6 20 0 0,0
23.02.2020 02:00:00 9,8 2,4 8,6 7,3 16 9 27 14 WSW 1030,9 60 0 0,0
23.02.2020 01:00:00 9,6 2,4 6,9 7,3 10 5 21 11 SW 1030,9 60 0 0,0
23.02.2020 00:00:00 9,8 2,2 8,8 7,3 3 2 19 10 W 1031,6 58 0 0,0
22.02.2020 23:00:00 10,2 2,3 9,3 7,3 16 9 33 18 W 1032,1 60 0 0,0
22.02.2020 22:00:00 10,1 2,2 8,0 7,3 12 7 24 13 WSW 1031,9 60 0 0,0
22.02.2020 21:00:00 9,1 1,3 7,4 7,2 5 3 12 6 SW 1031,8 60 0 0,0
22.02.2020 20:00:00 9,8 1,2 7,7 7,1 3 1 17 9 ESE 1031,3 60 0 0,0
22.02.2020 19:00:00 10,1 1,5 7,7 7,0 6 3 18 10 SW 1030,8 60 0 0,0
22.02.2020 18:00:00 9,9 1,8 7,8 6,8 7 4 21 12 SW 1030,6 60 0 0,0

tt = Température de l'air
td = dewpoint
tt 5cm = Température de l'air 5cm
tt -20cm = Température de l'air -20cm
ff = Vitesse du vent
fx = gusts
dd = Direction du vent
ppp = reduced air pressure
vv = visibility
sd = Ensoleillement
rr = Quantités de précipitations

stations d'obs. à proximité